• Processing (Info)

  • MPEC 2011-P14 : 2011 PS

    The following Minor Planet Electronic Circular may be linked-to from your own Web pages, but must not otherwise be redistributed electronically.

    A form allowing access to any MPEC is at the bottom of this page.


    Read MPEC 2011-P13 Read MPEC 2011-P15


    M.P.E.C. 2011-P14                                Issued 2011 Aug. 4, 16:44 UT
    
         The Minor Planet Electronic Circulars contain information on unusual
             minor planets and routine data on comets.  They are published
       on behalf of Commission 20 of the International Astronomical Union by the
              Minor Planet Center, Smithsonian Astrophysical Observatory,
                              Cambridge, MA 02138, U.S.A.
    
                 Prepared using the Tamkin Foundation Computer Network
    
                                  MPC@CFA.HARVARD.EDU
                URL https://www.minorplanetcenter.net/    ISSN 1523-6714
    
                                        2011 PS
    
    Observations:
         K11P00S*QC2011 08 02.59849 23 07 14.89 -19 39 20.7          19.8 VrEP014E12
         K11P00S QC2011 08 02.61052 23 07 16.06 -19 39 23.0          20.1 VrEP014E12
         K11P00S QC2011 08 02.62254 23 07 17.24 -19 39 25.1          19.5 VrEP014E12
         K11P00S QC2011 08 02.63486 23 07 18.48 -19 39 27.6          19.2 VrEP014E12
         K11P00S QC2011 08 02.69687 23 07 24.57 -19 39 39.2          19.5 VrEP014E12
         K11P00S QC2011 08 02.70072 23 07 24.97 -19 39 40.0          19.8 VrEP014E12
         K11P00S QC2011 08 02.73067 23 07 27.91 -19 39 45.5          19.7 VrEP014E12
         K11P00S QC2011 08 02.78049 23 07 32.84 -19 39 52.7          18.8 VrEP014E12
         K11P00S QC2011 08 03.65094 23 09 09.39 -19 42 30.7          19.5 VrEP014E12
         K11P00S QC2011 08 03.65591 23 09 09.91 -19 42 31.9          19.7 VrEP014E12
         K11P00S QC2011 08 03.81985 23 09 26.57 -19 42 59.4          19.3 VrEP014E12
         K11P00S KC2011 08 04.35310823 10 27.40 -19 45 10.2          18.8 VrEP014H21
         K11P00S KC2011 08 04.35750423 10 27.86 -19 45 11.0          19.0 VrEP014H21
         K11P00S KC2011 08 04.36188323 10 28.30 -19 45 12.0          18.9 VrEP014H21
         K11P00S QC2011 08 04.51101 23 10 46.81 -19 45 07.2          19.6 VrEP014E12
         K11P00S QC2011 08 04.51474 23 10 47.23 -19 45 08.1          19.5 VrEP014E12
    
    Observer details:
    E12 Siding Spring Survey.  Observer R. H. McNaught.  Measurers J. D. Ahern,
        E. C. Beshore, A. Boattini, G. J. Garradd, A. R. Gibbs, A. D. Grauer,
        R. E. Hill, R. A. Kowalski, S. M. Larson, R. H. McNaught.  0.5-m Uppsala
        Schmidt + CCD.
    H21 Astronomical Research Observatory, Westfield.  Observer R. Holmes.
        Measurers S. Foglia, T. Vorobjov.  0.81-m f/4.0 astrograph + CCD.
    
    Orbital elements:
    2011 PS                                             PHA, Earth MOID = 0.0269 AU
    Epoch 2011 Aug. 27.0 TT = JDT 2455800.5                 MPC
    M 336.98805              (2000.0)            P               Q
    n   0.40559425     Peri.   26.28555     +0.69861551     -0.71517038
    a   1.8074857      Node    19.42338     +0.64446813     +0.61584510
    e   0.5144956      Incl.    3.72875     +0.31080091     +0.33055429
    P   2.43           H   20.1           G   0.15           U   8
    Residuals in seconds of arc
    110802 E12  0.2+  0.1+    110802 E12  0.1+  0.6-    110804 H21  0.0   0.1+
    110802 E12  0.2-  0.2+    110802 E12  0.1-  0.0     110804 H21  0.1-  0.1-
    110802 E12  0.3-  0.4+    110803 E12  0.1-  0.0     110804 E12  0.1-  0.1+
    110802 E12  0.0   0.3+    110803 E12  0.1+  0.2-    110804 E12  0.1+  0.0
    110802 E12  0.0   0.0     110803 E12  0.1-  0.0
    110802 E12  0.3+  0.2-    110804 H21  0.0   0.1+
    
    Ephemeris:
    2011 PS                  a,e,i = 1.81, 0.51, 4                   q = 0.8775
    Date    TT    R. A. (2000) Decl.     Delta      r     Elong.  Phase     V
    2011 07 05    22 23 44.2 -19 13 21   0.6550  1.5301   131.3    30.0    21.4
    ...
    2011 07 20    22 45 21.7 -19 12 51   0.4785  1.4171   140.2    27.4    20.5
    ...
    2011 07 28    22 57 43.0 -19 25 12   0.3941  1.3559   144.5    25.8    19.9
    ...
    2011 08 03    23 07 57.5 -19 40 38   0.3352  1.3099   147.4    24.6    19.5
    2011 08 04    23 09 47.8 -19 43 41   0.3258  1.3022   147.9    24.5    19.4
    2011 08 05    23 11 41.0 -19 46 50   0.3165  1.2945   148.3    24.3    19.3
    ...
    2011 08 11    23 24 21.3 -20 08 01   0.2627  1.2487   150.4    23.7    18.8
    ...
    2011 08 19    23 47 18.7 -20 39 06   0.1966  1.1882   151.2    24.2    18.1
    ...
    2011 09 03    01 30 34.8 -19 55 54   0.09279 1.0801   138.4    38.3    16.6
    
    A. U. Tomatic                (C) Copyright 2011 MPC           M.P.E.C. 2011-P14
    

    Read MPEC 2011-P13 Read MPEC 2011-P15


    MPEC number:

    Enter an MPEC number in one of the following forms:

    • 1997-B01 (the full form)
    • J97B01 (the packed version of the full form)
    • B01 (the abbreviated form)